Radiation Dose measured at exhaust stack monitor of Fukushima Daiichi Nuclear Power Station
Date,Time,Unit 5 6 shared exhaust cylinders,Wind Direction,Wind Velocity(m/s)
2024/03/15,00:00,3.7,south-southwest,1.2
2024/03/15,00:10,3.7,west-southwest,0.8
2024/03/15,00:20,3.8,west,0.6
2024/03/15,00:30,4.0,south-southeast,1.5
2024/03/15,00:40,3.8,south-southeast,1.8
2024/03/15,00:50,3.8,west-southwest,1.4
2024/03/15,01:00,3.8,southwest,2.0
2024/03/15,01:10,3.8,southwest,2.6
2024/03/15,01:20,3.9,south-southwest,3.6
2024/03/15,01:30,3.8,west-southwest,3.8
2024/03/15,01:40,3.8,southwest,3.8
2024/03/15,01:50,3.9,southwest,2.0
2024/03/15,02:00,3.6,southwest,3.7
2024/03/15,02:10,3.8,southwest,4.1
2024/03/15,02:20,3.8,south-southwest,3.9
2024/03/15,02:30,4.0,southwest,4.1
2024/03/15,02:40,3.9,south-southwest,3.3
2024/03/15,02:50,3.9,southwest,3.5
2024/03/15,03:00,4.0,southwest,3.9
2024/03/15,03:10,4.0,southwest,3.8
2024/03/15,03:20,3.7,south-southwest,4.3
2024/03/15,03:30,3.7,southwest,4.2
2024/03/15,03:40,3.7,southwest,5.3
2024/03/15,03:50,3.7,southwest,5.1
2024/03/15,04:00,3.9,southwest,5.2
2024/03/15,04:10,3.7,south-southwest,5.3
2024/03/15,04:20,3.7,south-southwest,5.5
2024/03/15,04:30,3.8,south-southwest,5.6
2024/03/15,04:40,3.8,south-southwest,5.8
2024/03/15,04:50,3.8,south-southwest,5.6
2024/03/15,05:00,3.5,south,4.9
2024/03/15,05:10,3.7,south-southwest,4.9
2024/03/15,05:20,3.8,south-southwest,5.1
2024/03/15,05:30,3.8,south-southwest,4.9
2024/03/15,05:40,3.8,south-southwest,5.2
2024/03/15,05:50,3.7,south-southwest,5.4
2024/03/15,06:00,3.8,south-southwest,4.9
2024/03/15,06:10,3.9,southwest,5.1
2024/03/15,06:20,3.7,southwest,5.5
2024/03/15,06:30,3.6,west-southwest,4.7
2024/03/15,06:40,3.7,southwest,3.8
2024/03/15,06:50,3.7,southwest,4.2
2024/03/15,07:00,3.7,south-southwest,4.5
2024/03/15,07:10,3.8,southwest,6.1
2024/03/15,07:20,3.8,southwest,6.4
2024/03/15,07:30,3.7,southwest,6.2
2024/03/15,07:40,3.6,south-southwest,6.2
2024/03/15,07:50,3.7,south-southwest,4.3
2024/03/15,08:00,3.8,southwest,5.5
2024/03/15,08:10,3.9,west-southwest,6.3
2024/03/15,08:20,4.0,southwest,5.9
2024/03/15,08:30,3.8,southwest,4.7
2024/03/15,08:40,3.9,southwest,4.1
2024/03/15,08:50,3.8,west-southwest,6.5
2024/03/15,09:00,3.8,southwest,6.8
2024/03/15,09:10,3.7,west-southwest,6.4
2024/03/15,09:20,3.8,southwest,5.6
2024/03/15,09:30,3.8,southwest,7.1
2024/03/15,09:40,3.7,west-southwest,7.7
2024/03/15,09:50,3.7,west-southwest,6.8
2024/03/15,10:00,3.6,southwest,6.3
2024/03/15,10:10,3.8,west-southwest,6.7
2024/03/15,10:20,3.7,southwest,5.7
2024/03/15,10:30,3.7,west-southwest,8.2
2024/03/15,10:40,3.8,west-southwest,7.8
2024/03/15,10:50,3.7,west-southwest,6.7
2024/03/15,11:00,3.7,southwest,5.9
2024/03/15,11:10,3.7,southwest,8.4
2024/03/15,11:20,3.6,west-southwest,7.7
2024/03/15,11:30,3.7,southwest,7.3
2024/03/15,11:40,3.8,southwest,6.9
2024/03/15,11:50,3.7,southwest,7.2
2024/03/15,12:00,3.9,southwest,7.1
2024/03/15,12:10,3.8,southwest,7.5
2024/03/15,12:20,3.7,southwest,9.2
2024/03/15,12:30,3.9,southwest,6.6
2024/03/15,12:40,3.8,south-southwest,6.7
2024/03/15,12:50,3.8,southwest,6.2
2024/03/15,13:00,3.7,west-southwest,5.4
2024/03/15,13:10,3.9,west-southwest,6.4
2024/03/15,13:20,3.9,west-southwest,6.7
2024/03/15,13:30,3.8,west-southwest,6.5
2024/03/15,13:40,3.8,southwest,6.2
2024/03/15,13:50,3.7,southwest,8.2
2024/03/15,14:00,3.8,west-southwest,7.8
2024/03/15,14:10,3.8,west-southwest,8.9
2024/03/15,14:20,3.8,west-southwest,7.1
2024/03/15,14:30,3.8,west-southwest,8.2
2024/03/15,14:40,3.9,west,8.3
2024/03/15,14:50,3.9,southwest,7.4
2024/03/15,15:00,3.6,west-southwest,7.1
2024/03/15,15:10,3.7,west-southwest,6.9
2024/03/15,15:20,3.6,west-southwest,8.0
2024/03/15,15:30,3.9,west,8.1
2024/03/15,15:40,3.8,west,7.4
2024/03/15,15:50,3.8,west-southwest,7.4
2024/03/15,16:00,3.8,west-southwest,6.2
2024/03/15,16:10,3.8,west-southwest,6.9
2024/03/15,16:20,3.8,west,6.2
2024/03/15,16:30,3.8,west-northwest,6.3
2024/03/15,16:40,3.6,west-northwest,7.0
2024/03/15,16:50,3.7,west,7.6
2024/03/15,17:00,3.7,west-southwest,6.6
2024/03/15,17:10,3.7,west-southwest,8.7
2024/03/15,17:20,3.7,west-southwest,6.9
2024/03/15,17:30,3.9,southwest,6.3
2024/03/15,17:40,3.7,southwest,6.5
2024/03/15,17:50,3.8,west-southwest,7.6
2024/03/15,18:00,3.8,southwest,6.2
2024/03/15,18:10,3.7,southwest,6.8
2024/03/15,18:20,3.9,southwest,6.2
2024/03/15,18:30,3.8,southwest,5.2
2024/03/15,18:40,3.8,southwest,5.3
2024/03/15,18:50,3.7,southwest,4.9
2024/03/15,19:00,3.7,south-southwest,6.5
2024/03/15,19:10,3.8,southwest,2.6
2024/03/15,19:20,3.8,southwest,5.5
2024/03/15,19:30,3.8,southwest,5.4
2024/03/15,19:40,3.8,west-southwest,6.5
2024/03/15,19:50,3.8,southwest,4.6
2024/03/15,20:00,3.8,southwest,5.4
2024/03/15,20:10,3.7,southwest,5.6
2024/03/15,20:20,3.8,west,3.4
2024/03/15,20:30,3.9,southwest,3.3
2024/03/15,20:40,3.8,west,2.8
2024/03/15,20:50,3.7,west-southwest,4.1
2024/03/15,21:00,3.7,west-southwest,4.5
2024/03/15,21:10,3.8,west,5.4
2024/03/15,21:20,3.7,west-southwest,5.0
2024/03/15,21:30,3.8,west-southwest,6.4
2024/03/15,21:40,3.8,west-southwest,6.3
2024/03/15,21:50,3.7,west,4.7
2024/03/15,22:00,3.7,west-southwest,4.4
2024/03/15,22:10,3.6,west-southwest,3.1
2024/03/15,22:20,3.6,west-northwest,2.6
2024/03/15,22:30,3.8,west-southwest,1.2
2024/03/15,22:40,3.7,northwest,2.0
2024/03/15,22:50,3.8,north-northwest,1.2
2024/03/15,23:00,3.8,west-southwest,3.4
2024/03/15,23:10,3.8,northwest,3.8
2024/03/15,23:20,3.6,west-northwest,8.7
2024/03/15,23:30,3.8,west-northwest,9.8
2024/03/15,23:40,3.5,west-northwest,8.2
2024/03/15,23:50,3.8,west-northwest,7.6
